Regional Weather Roundup
Issued by NWS

Home | Current Version | Previous Version | Text Only | Print | Product List | Glossary On
Versions: 1 2 3 4 5 6 7 8 9 10 11 12 13 14 15 16 17 18 19 20 21 22 23 24 25 26 27 28 29 30 31 32 33 34 35 36 37 38 39 40 41 42 43 44 45 46 47 48 49 50
000
ASUS43 KMPX 050510
RWRMN
WEATHER ROUNDUP FOR MINNESOTA
NATIONAL WEATHER SERVICE TWIN CITIES/CHANHASSEN MN
1100 PM CST SUN DEC 04 2016


NOTE: "FAIR" INDICATES FEW OR NO CLOUDS BELOW 12,000 FEET WITH NO
SIGNIFICANT WEATHER AND/OR OBSTRUCTIONS TO VISIBILITY. N/A MEANS
CURRENT SKY AND/OR WEATHER CONDITIONS ARE NOT AVAILABLE.

MNZ060>063-068>070-050600-
   Twin Cities Metro

CITY           SKY/WX    TMP DP  RH WIND       PRES   REMARKS
TWIN CITIES    PTCLDY    34  28  79 SW7       29.78R WCI  28
ST PAUL        CLEAR     34  30  85 SW7       29.79S WCI  28
CRYSTAL        CLEAR     34  27  75 SW6       29.76R WCI  29
BLAINE         PTCLDY    36  34  93 SW8       29.76R
LAKEVILLE      CLEAR     28  28 100 S5        29.79R WCI  23
EDEN PRAIRIE   CLEAR     32  28  85 SW3       29.77S
SOUTH ST PAUL  CLEAR     35  31  85 SW3       29.78S
LAKE ELMO      FAIR      34  32  93 SW7       29.78R WCI  28
$$
MNZ001>005-007-008-013>017-022>024-027-028-050600-
   Northwest Minnesota

CITY           SKY/WX    TMP DP  RH WIND       PRES   REMARKS
BEMIDJI        CLOUDY    29  26  89 W12       29.64S WCI  19
HALLOCK        CLOUDY    30  28  93 W8        29.64S WCI  23
ROSEAU         CLOUDY    30  27  86 W9        29.61R WCI  22
WARROAD        LGT SNOW  30  27  86 SW9       29.61R WCI  22
THIEF RVR FALL   N/A     28  26  92 W10       29.66  WCI  19
CROOKSTON      CLOUDY    28  27  93 W9        29.69R WCI  20
FOSSTON        CLOUDY    27  25  93 W8        29.67S WCI  18
DETROIT LAKES  CLOUDY    32  30  93 W5        29.68S WCI  27
MOORHEAD       CLEAR     28  25  86 W5        29.70S WCI  23
PARK RAPIDS    CLOUDY    31  25  78 W8        29.66R WCI  23
$$
MNZ006-009>011-018-025>026-050600-
   North Central Minnesota

CITY           SKY/WX    TMP DP  RH WIND       PRES   REMARKS
BAUDETTE       LGT SNOW  29  28  96 SW5       29.60R FOG     WCI  24
FLAG ISLAND    LGT SNOW  30  28  93 SW7       29.58R WCI  23
INTL FALLS     CLOUDY    30  27  88 W8        29.61R FOG     WCI  22
WASKISH        CLOUDY    30  28  93 W15       29.62S WCI  19
BIG FORK       CLOUDY    30  27  86 W5        29.63R WCI  25
LONGVILLE      CLOUDY    30  27  86 SW7       29.66R WCI  23
GRAND RAPIDS   MIX PCPN  31  29  92 W7        29.66R FOG     WCI  24
CRANE LAKE     CLOUDY    28  28 100 CALM      29.62S
ORR            MIX PCPN  30  28  93 W8        29.59R WCI  23
COOK           CLOUDY    30  30 100 W5        29.61R FOG     WCI  25
$$
MNZ012-019>021-037-050600-
   Northeast Minnesota

CITY           SKY/WX    TMP DP  RH WIND       PRES   REMARKS
DULUTH         FLURRIES  32  29  88 W14       29.64R WCI  22
ELY            CLOUDY    30  28  93 CALM      29.60S
HIBBING        CLOUDY    29  27  92 W6        29.63R WCI  23
EVELETH        MIX PCPN  32  31  94 W7        29.63R WCI  26
DULUTH HARBOR  CLOUDY    36  32  87 SW12      29.68R
TWO HARBORS    CLOUDY    36  30  80 CALM      29.62R HAZE
SILVER BAY     CLOUDY    34  34 100 CALM      29.61S
GRAND MARAIS     N/A     34  33  96 CALM      29.65S
G MARAIS ARPRT MIX PCPN  28  25  86 CALM      29.60S VSB 1
$$
MNZ029>031-032-039>041-046>048-054>057-064-050600-
   West Central Minnesota

CITY           SKY/WX    TMP DP  RH WIND       PRES   REMARKS
FERGUS FALLS   CLEAR     28  28 100 CALM      29.75R
WHEATON        CLEAR    N/A N/A N/A S5        29.74R
MORRIS         CLEAR     28  27  93 SW6       29.73R WCI  22
ALEXANDRIA     CLEAR     27  27 100 SW7       29.71S WCI  19
ELBOW LAKE     FAIR      27  26  99 CALM      29.72R
WADENA         PTCLDY    28  28 100 W6        29.68R WCI  22
GLENWOOD       CLEAR     28  28 100 SW8       29.72S WCI  20
APPLETON       CLEAR     30  27  86 SW5       29.74S WCI  25
BENSON         CLEAR     28  27  93 W7        29.74R WCI  21
ORTONVILLE     CLEAR     30  27  86 CALM      29.73S
MADISON        CLEAR     34  32  93 SW5       29.74S WCI  30
WILLMAR        FAIR      32  30  93 SW3       29.76S
$$
MNZ033>034-036-042>043-049>051-058-059-050600-
   Central Minnesota

CITY           SKY/WX    TMP DP  RH WIND       PRES   REMARKS
ST CLOUD       PTCLDY    32  31  96 SW5       29.73S WCI  27
PAYNESVILLE    CLEAR     32  32 100 SW5       29.74S WCI  27
AITKIN         CLOUDY    36  27  69 W7        29.67R
PINE RIVER     CLOUDY    30  27  86 W8        29.72R WCI  23
BRAINERD       CLOUDY    33  28  81 W8        29.69S WCI  26
STAPLES        CLOUDY    30  28  93 SW5       29.69R WCI  25
LONG PRAIRIE   FAIR      30  30 100 S7        29.71S WCI  23
LITTLE FALLS   MOCLDY    32  30  93 SW5       29.72R WCI  27
LITCHFIELD     CLEAR     30  28  93 CALM      29.76S
BUFFALO        CLEAR     32  28  86 SW5       29.77R WCI  27
MAPLE LAKE     CLEAR     33  31  92 SW5       29.76R WCI  28
$$
MNZ037-044-045-052-053-050600-
   East Central Minnesota

CITY           SKY/WX    TMP DP  RH WIND       PRES   REMARKS
PRINCETON      CLOUDY    36  32  87 SW6       29.74R
MORA           CLOUDY    34  30  86 SW8       29.73R WCI  27
CAMBRIDGE      CLOUDY    36  30  80 SW7       29.73R
RUSH CITY      CLOUDY    34  30  86 SW7       29.74R WCI  28
MOOSE LAKE     CLOUDY    32  30  93 SW5       29.67R WCI  27
HINCKLEY       CLOUDY    34  32  93 SW8       29.71S WCI  27
CLOQUET        CLOUDY    32  28  86 W9        29.65R WCI  24
MCGREGOR       CLOUDY    32  30  93 W5        29.68R WCI  27
$$
MNZ071>073-080-081-089-090-097-098-050600-
   Southwest Minnesota

CITY           SKY/WX    TMP DP  RH WIND       PRES   REMARKS
MONTEVIDEO     CLEAR     28  27  93 SW3       29.77R
GRANITE FALLS  CLEAR     30  29  94 S9        29.77S WCI  22
CANBY          PTCLDY    35  30  82 CALM      29.75S
MARSHALL       CLEAR     36  29  75 SW6       29.76S
REDWOOD FALLS  CLEAR     29  26  89 S7        29.78R WCI  22
OLIVIA         CLEAR     32  30  93 S8        29.76S WCI  25
PIPESTONE      CLEAR     32  28  86 S3        29.76S
WINDOM         CLEAR     32  30  93 CALM      29.79S
WORTHINGTON    CLEAR     33  29  85 S12       29.80S WCI  24
JACKSON        CLEAR     30  28  93 S7        29.81S WCI  23
TRACY          CLEAR     33  30  89 SW10      29.77F WCI  25
SLAYTON        CLEAR     31  29  93 S8        29.78S WCI  23
$$
MNZ065>067-074>077-082>085-091>093-050600-
   South Central Minnesota

CITY           SKY/WX    TMP DP  RH WIND       PRES   REMARKS
MANKATO        CLEAR     32  30  92 S5        29.81R WCI  27
NEW ULM        CLEAR     30  28  93 SW6       29.79S WCI  24
ST JAMES       CLEAR     32  30  93 S6        29.81S WCI  26
FAIRMONT       CLEAR     32  30  92 SW9       29.82S WCI  24
GLENCOE        CLEAR     32  32 100 S5        29.77S WCI  27
FARIBAULT      CLEAR     32  30  93 S3        29.81R
OWATONNA       CLEAR     32  30  93 S8        29.81R WCI  25
WASECA         CLEAR     32  32 100 SW7       29.82S WCI  26
ALBERT LEA     CLEAR     36  36 100 SW7       29.82S
$$
MNZ078>079-086>088-094>096-050600-
   Southeast Minnesota

CITY           SKY/WX    TMP DP  RH WIND       PRES   REMARKS
ROCHESTER      CLEAR     32  32 100 SW12      29.81S WCI  23
RED WING       CLOUDY    36  34  93 W5        29.80R
STANTON        CLEAR     32  30  92 SW5       29.79S WCI  27
DODGE CENTER   PTCLDY    30  30 100 SW13      29.80S WCI  20
WINONA         MOCLDY    36  32  87 SW7       29.82S
PRESTON        CLOUDY    33  32  96 SW10      29.82S FOG     WCI  24
$$
ABBREVIATIONS USED IN REMARKS
   TC - TEMPERATURES IN CELSIUS
  WCI - WIND CHILL INDEX
   HX - HEAT INDEX
  VSB - VISIBILITY
$$




USA.gov is the U.S. government's official web portal to all federal, state and local government web resources and services.